CAPE
0 0 0 0 0 0 0 0 0 0 0 0 0 0 0 0 0 0 0 0 1 5
0 0 0 0 0 0 0 0 0 0 0 0 0 0 2 2 3 0 0 0 7 4
0 0 0 0 0 0 0 0 0 0 0 0 0 0 0 0 0 0 1 14 9 0
0 0 0 0 0 0 0 0 0 0 0 0 0 0 0 0 0 0 0 0 0 0
0 0 0 0 0 0 0 0 0 0 0 0 0 0 0 0 0 0 0 0 0 0
0 0 0 0 0 0 0 0 0 0 0 0 0 0 0 0 0 0 0 0 0 0
0 0 0 0 0 0 0 0 0 0 0 0 0 0 0 0 0 0 0 0 0 0
0 0 1 0 0 0 0 0 0 0 0 0 0 0 0 0 0 0 0 0 0 0
0 0 4 5 0 0 0 3 0 0 0 0 0 0 0 0 0 0 0 0 0 0
0 0 7 6 2 0 0 0 0 0 0 0 0 0 0 0 0 0 0 0 0 0
0 0 0 0 2 10 0 0 0 0 0 0 0 0 0 0 0 0 0 0 0 0
0 0 0 0 0 0 0 0 0 0 0 0 0 0 0 0 0 0 0 0 0 0
0 0 0 0 0 0 0 0 0 0 0 0 0 0 0 2 0 0 0 0 0 0
0 0 0 0 0 0 0 0 0 0 0 0 0 0 0 0 0 0 0 0 0 0
CIN
0 0 0 0 0 0 0 0 0 0 0 0 0 0 0 0 0 0 0 0 -10 -6
0 0 0 0 0 0 0 0 0 0 0 0 0 0 -20 -20 -22 0 0 -2 -16 -17
0 0 0 0 0 0 0 0 0 0 0 0 0 0 0 0 0 0 -16 -15 -17 -8
0 0 0 0 0 0 0 0 0 0 0 0 0 0 0 0 -2 0 0 0 0 0
0 0 0 0 0 0 0 0 0 0 0 0 0 0 0 0 0 0 0 0 0 0
0 0 0 0 0 0 0 0 0 0 0 0 0 0 0 0 0 0 0 0 0 0
0 0 0 0 0 0 0 0 0 0 0 0 0 0 0 0 0 0 0 0 0 0
0 0 -35 0 0 0 0 0 0 0 0 0 0 0 0 0 0 0 0 0 0 0
0 0 -74 -56 -1 0 0 0 0 0 0 0 0 0 0 0 0 0 0 0 0 0
0 0 -69 -50 -31 0 0 0 0 0 0 0 0 0 0 0 0 0 0 0 0 0
0 0 0 0 -10 -16 0 0 0 0 0 0 0 0 0 0 0 0 0 0 0 0
0 0 0 0 0 0 0 0 0 0 0 0 0 0 0 0 0 0 0 0 0 -0
0 0 0 -1 -0 0 0 0 0 0 0 0 0 0 0 -0 0 0 0 0 0 -0
0 0 -1 0 0 0 0 0 0 0 0 0 0 0 0 0 0 0 0 0 0 0
Wind_Speed
28 29 31 33 34 34 34 35 35 35 34 34 33 34 34 34 35 37 36 38 37 36
29 31 32 32 31 32 33 35 34 33 32 32 32 32 34 35 36 36 35 33 33 33
30 30 29 29 32 32 33 34 33 32 31 32 31 31 33 34 34 33 32 32 31 31
29 29 31 32 33 33 32 32 31 31 30 30 30 32 34 33 32 31 31 29 30 32
30 30 33 34 33 32 32 30 27 27 28 28 29 31 32 32 29 29 30 31 33 36
33 35 36 37 34 33 33 28 29 26 26 27 29 30 29 28 27 27 29 33 36 38
41 40 40 39 34 33 32 31 26 26 25 30 30 28 27 27 28 30 32 34 35 36
39 41 40 37 35 34 33 30 28 23 27 31 28 28 26 28 31 34 35 34 34 34
40 41 39 40 36 33 30 28 24 24 28 28 26 25 28 31 33 33 33 34 34 33
41 41 40 40 36 32 25 24 24 28 24 26 26 26 31 32 30 31 33 33 33 33
42 43 44 41 35 29 24 23 22 21 24 26 28 30 31 32 31 31 32 32 30 28
42 42 41 37 31 24 21 19 15 18 23 28 29 31 31 33 33 33 32 30 25 21
39 39 36 31 28 20 18 15 16 20 25 27 28 32 32 33 32 33 32 27 23 21
36 33 28 27 22 21 15 16 19 23 25 26 29 31 33 35 32 31 29 26 23 23
Wind_Direction
346 344 341 340 339 339 340 338 338 337 336 335 334 332 330 329 327 325 321 320 318 317
343 341 340 342 342 339 338 336 336 336 336 336 335 333 331 328 327 327 325 324 324 322
341 341 340 339 337 336 336 337 337 336 336 336 336 336 334 331 330 328 328 326 324 323
339 338 336 333 332 331 332 334 335 336 338 338 338 338 336 334 332 331 331 331 328 324
335 335 334 332 329 330 330 333 333 337 338 341 342 343 342 339 339 336 333 330 326 322
338 333 331 330 330 330 332 329 330 335 336 341 342 342 345 346 344 341 336 331 327 323
338 338 335 333 331 332 336 335 331 333 334 336 340 342 345 346 344 339 335 332 329 327
343 341 340 338 334 332 328 326 326 331 335 335 339 340 345 345 340 337 335 335 333 331
342 342 342 340 337 336 334 334 334 329 334 339 342 346 345 341 339 339 339 336 334 333
344 343 341 340 338 337 334 333 334 334 341 345 346 346 344 343 343 342 341 340 338 337
344 342 342 341 340 341 344 343 341 345 349 349 348 347 348 347 348 347 345 344 343 343
344 344 345 347 350 350 355 357 9 6 358 353 352 353 353 352 352 350 348 348 350 351
346 347 350 354 0 15 18 25 20 8 2 360 359 356 356 354 355 353 353 357 0 2
350 352 357 2 5 7 25 28 15 4 4 5 2 360 359 357 360 360 1 5 9 10